Find Starlink 2336

NORAD ID: 47879 Int'l Des: 2021-021 Owner: SPXS Country: US Constellation: starlink operational
LEOCIRCULAR

現在のビュー

3D地球を読み込み中...

About Starlink 2336

Starlink 2336 (NORAD 47879) is a starlink constellation satellite (v1.0) launched Mar 14, 2021 by SPXS of US. It operates in LEO, CIRCULAR orbit with a mass of 260.00 kg.

Starlink 2336について

説明を読み込み中...

次回通過

Passes for default location (London). Set your location on the main map for personalized predictions.

高度履歴

Loading altitude history...

軌道要素

1 47879U 21021V 26197.30170657 .00084874 00000-0 44372-3 0 9999
2 47879 53.1527 22.6199 0001675 293.4910 66.5936 15.80152227296225
Epoch: Jul 16, 2026 • Age: 9 hours

現在のステータス

高度 329.9 km
遠地点 / 近地点 N/A
速度 7.71 km/s
衛星直下点 4.82°N, 155.81°W
打ち上げ日 Mar 14, 2021
運用期間 5.3 years
タイプ internet

技術仕様

分類 Payload
質量 260.00 kg
乾燥質量 248.00 kg
総質量 260.00 kg
長さ 0.20 m
直径 2.80 m
スパン 9.00 m
形状 Box + pan
製造者 SPXS
バスタイプ Starlink
フェーズステータス In Orbit
所有者/国 SPXS/US

Most Searched